Flag for U.S.A. Weather past 2 weeks in Kennebunk, Maine, U.S.A.

36 °F


Feels Like: 36 °F
Forecast: 40 / 67 °F
Wind: No wind

Location: Sanford Municipal

Current Time: Oct 7, 2015 at 6:49:07 AM

Latest Report: Oct 7, 2015 at 6:35 AM

Visibility: 10 mi

Pressure: 29.93 "Hg

Humidity: 75%

Dew point: 28 °F

Location of KennebunkLocation

Historic Weather in Kennebunk — Graph


Kennebunk temperature yesterday

Maximum temperature yesterday: 68 °F (at 2:55 PM)
Minimum temperature yesterday: 34 °F (at 3:55 AM)
Average temperature yesterday: 50 °F

Past Weeks' High & Low Weather Summary

High81 °F (Sep 29, 1:55 PM)94% (Sep 29, 6:15 AM)30.56 "Hg (Sep 29, 6:15 AM)
Low27 °F (Sep 27, 4:55 AM)27% (Sep 23, 3:55 PM)29.69 "Hg (Sep 30, 11:35 AM)
Average53 °F67%30.26 "Hg
* Reported Sep 22 5:15 AM — Oct 7 5:55 AM, Kennebunk, Weather by CustomWeather, © 2015

Note: Actual official high and low records may vary slightly from our data, if they occured in-between our weather recording intervals... More about our weather records


Kennebunk weather history for previous 24 hours

Time TempWeatherWind HumidityBarometerVisibility
5:55 AM
Wed, Oct 7
36 °FClear.No wind87%29.93 "Hg10 mi
5:35 AM36 °FClear.No wind81%29.93 "Hg10 mi
5:15 AM36 °FClear.3 mph75%29.93 "Hg10 mi
4:55 AM36 °FClear.No wind81%29.93 "Hg10 mi
4:35 AM36 °FClear.No wind87%29.93 "Hg10 mi
4:15 AM36 °FClear.No wind87%29.93 "Hg10 mi
3:55 AM37 °FClear.No wind75%29.93 "Hg10 mi
3:35 AM37 °FClear.No wind87%29.94 "Hg10 mi
3:15 AM37 °FClear.No wind75%29.94 "Hg10 mi
2:55 AM37 °FClear.No wind87%29.94 "Hg8 mi
2:35 AM37 °FClear.No wind87%29.95 "Hg10 mi
2:15 AM37 °FClear.No wind87%29.94 "Hg10 mi
1:55 AM39 °FClear.No wind81%29.95 "Hg10 mi
1:35 AM39 °FClear.No wind81%29.94 "Hg9 mi
1:15 AM39 °FClear.No wind81%29.95 "Hg9 mi
12:55 AM39 °FClear.3 mph81%29.95 "Hg9 mi
12:35 AM41 °FClear.No wind81%29.95 "Hg10 mi
12:15 AM39 °FClear.3 mph87%29.95 "Hg8 mi
11:35 PM
Tue, Oct 6
43 °FClear.No wind76%29.96 "Hg10 mi
10:55 PM43 °FClear.No wind81%29.96 "Hg10 mi
10:35 PM43 °FClear.3 mph81%29.96 "Hg10 mi
10:15 PM45 °FClear.3 mph81%29.96 "Hg10 mi
9:55 PM43 °FClear.No wind87%29.96 "Hg10 mi
9:35 PM45 °FClear.No wind81%29.96 "Hg10 mi
9:15 PM45 °FClear.No wind81%29.96 "Hg10 mi
8:55 PM46 °FClear.No wind76%29.95 "Hg10 mi
8:35 PM46 °FClear.No wind82%29.95 "Hg10 mi
8:15 PM46 °FClear.No wind87%29.95 "Hg10 mi
7:55 PM46 °FClear.6 mph82%29.95 "Hg10 mi
7:35 PM46 °FClear.5 mph82%29.95 "Hg10 mi
7:15 PM46 °FClear.3 mph87%29.95 "Hg10 mi
6:55 PM48 °FSunny.No wind82%29.95 "Hg10 mi
5:35 PM61 °FScattered clouds.No wind52%29.94 "Hg10 mi
5:15 PM61 °FScattered clouds.3 mph52%29.93 "Hg10 mi
4:55 PM63 °FSunny.3 mph49%29.92 "Hg5 mi
4:35 PM66 °FSunny.No wind43%29.92 "Hg10 mi
4:15 PM66 °FSunny.5 mph43%29.93 "Hg10 mi
3:55 PM66 °FSunny.6 mph43%29.92 "Hg10 mi
3:35 PM66 °FSunny.5 mph40%29.93 "Hg10 mi
3:15 PM68 °FSunny.3 mph40%29.93 "Hg10 mi
2:55 PM68 °FSunny.5 mph40%29.94 "Hg10 mi
2:35 PM66 °FSunny.6 mph40%29.95 "Hg10 mi
2:15 PM66 °FSunny.5 mph40%29.96 "Hg10 mi
1:55 PM66 °FSunny.6 mph37%29.96 "Hg10 mi
1:35 PM66 °FSunny.7 mph37%29.97 "Hg10 mi
1:15 PM66 °FSunny.5 mph37%29.98 "Hg10 mi
12:55 PM64 °FSunny.5 mph37%30.00 "Hg10 mi
12:35 PM64 °FSunny.No wind37%30.00 "Hg10 mi
12:15 PM64 °FSunny.No wind40%30.00 "Hg10 mi
11:55 AM63 °FSunny.5 mph39%30.01 "Hg10 mi
11:35 AM63 °FSunny.6 mph42%30.02 "Hg10 mi
11:15 AM61 °FSunny.6 mph45%30.03 "Hg10 mi
10:55 AM61 °FSunny.5 mph48%30.03 "Hg10 mi
10:35 AM61 °FSunny.7 mph45%30.03 "Hg10 mi
10:15 AM59 °FSunny.6 mph51%30.04 "Hg10 mi
9:55 AM57 °FSunny.7 mph51%30.04 "Hg10 mi
9:35 AM55 °FSunny.8 mph63%30.04 "Hg10 mi
9:15 AM54 °FSunny.8 mph63%30.04 "Hg10 mi
8:55 AM54 °FSunny.6 mph63%30.03 "Hg10 mi
8:35 AM52 °FSunny.No wind77%30.03 "Hg10 mi
8:15 AM46 °FSunny.No wind87%30.03 "Hg10 mi
7:55 AM45 °FSunny.No wind81%30.03 "Hg10 mi
7:35 AM39 °FClear.No wind87%30.02 "Hg3 mi
7:15 AM37 °FClear.No wind87%30.03 "Hg10 mi
6:55 AM36 °FClear.No wind81%30.03 "Hg10 mi
6:35 AM37 °FClear.No wind87%30.03 "Hg10 mi
6:15 AM37 °FClear.No wind93%30.03 "Hg10 mi
Weather by CustomWeather, © 2015

See weather overviewHow to use our weather pages